Retour au catalogue

SL-8 DEB

ActifLEO
NORAD 21170·DEBRIS·🇷🇺 Russia

Lancé Feb 12, 1991 depuis Plesetsk Cosmodrome

Loading…

Prochains Passages (prochaines 24 heures)

TLE

FraisSource: Space-Track

Époque: Sep 14, 2026, 14:15 UTC

1 21170U 91009AH  26257.59395052  .00000191  00000-0  20949-2 0  9997
2 21170  74.1159   2.4053 0151906 322.1712  50.6034 12.12969933573158

Suivez SL-8 DEB en temps réel avec AllMySat

Download on the App Store